Regional Weather Roundup
Issued by NWS

Home | Current Version | Previous Version | Text Only | Print | Product List | Glossary On
Versions: 1 2 3 4 5 6 7 8 9 10 11 12 13 14 15 16 17 18 19 20 21 22 23 24 25 26 27 28 29 30 31 32 33 34 35 36 37 38 39 40 41 42 43 44 45 46 47 48 49 50
000
ASUS43 KBIS 271910
RWRND

NORTH DAKOTA REGIONAL WEATHER ROUNDUP
NATIONAL WEATHER SERVICE BISMARCK ND
200 PM CDT WED JUL 27 2016

NOTE: "FAIR" INDICATES FEW OR NO CLOUDS BELOW 12,000 FEET WITH NO
SIGNIFICANT WEATHER AND/OR OBSTRUCTIONS TO VISIBILITY.


NDZ001>003-009>011-017-272000-
NORTHWEST NORTH DAKOTA

CITY           SKY/WX    TMP DP  RH WIND       PRES   REMARKS
WILLISTON      CLOUDY    74  59  59 W6        30.14S
MINOT          SUNNY     79  58  48 NE8       30.14R
MINOT AFB      PTSUNNY   75  58  56 VRB3      30.13S
$$

NDZ018>021-031>035-040>046-272000-
SOUTHWEST NORTH DAKOTA

CITY           SKY/WX    TMP DP  RH WIND       PRES   REMARKS
BISMARCK       CLOUDY    75  63  66 NE10      30.12S
DICKINSON      CLOUDY    70  61  73 E3        30.14F
GARRISON         N/A     76  63  64 SE9       30.14R
HETTINGER ARPT CLOUDY    71  62  73 NW7       30.18R THUNDER
$$

NDZ004>008-012>016-024-026-027-054-272000-
NORTHEAST NORTH DAKOTA

CITY           SKY/WX    TMP DP  RH WIND       PRES   REMARKS
GRAND FORKS    MOSUNNY   76  59  55 N13       30.06F
GRND FRKS AFB  MOSUNNY   75  58  54 NE16      30.08S
DEVILS LAKE    MOSUNNY   72  57  59 N9G18     30.14F
$$

NDZ022-023-025-028>030-036>039-047>053-272000-
SOUTHEAST NORTH DAKOTA

CITY           SKY/WX    TMP DP  RH WIND       PRES   REMARKS
FARGO          SUNNY     79  59  50 NW18      30.04S
JAMESTOWN      SUNNY     76  60  57 N12       30.10F
$$





USA.gov is the U.S. government's official web portal to all federal, state and local government web resources and services.